Theta_e
352 354 355 354 356 355 354 353 353 354 354 354 355 357 357 358 358 359 358 359 358 357 357 356 354 348 341 339 338 337 338 338 337 337 335 334 333 335 336 337 337 337 336 336 335 335 336 336 336 335 336 337 336 337 336 336 336 335 335 334 334 334 333
352 354 354 353 354 355 354 352 352 354 353 353 355 356 357 357 358 358 357 358 357 356 357 355 349 343 340 340 338 338 340 338 336 336 335 334 334 334 336 337 337 336 335 335 335 335 336 336 336 336 337 337 335 335 335 335 335 335 335 334 334 334 333
350 352 354 351 352 353 353 352 351 352 352 352 354 355 356 357 357 358 358 357 356 354 354 351 346 342 342 342 339 338 340 338 336 336 334 334 334 335 336 336 336 335 335 334 335 336 336 336 336 335 335 334 334 334 335 335 335 334 335 335 335 334 333
349 353 352 351 352 350 351 351 349 352 352 351 354 355 356 357 357 357 357 356 355 352 351 348 346 344 343 342 340 338 338 337 337 336 335 335 334 335 337 335 334 335 334 333 335 336 336 335 334 333 333 332 333 333 333 333 334 334 334 335 334 334 334
349 351 351 350 351 350 351 350 349 351 352 351 353 355 356 357 357 357 356 356 354 352 351 349 346 344 342 342 341 340 339 338 337 337 336 336 335 335 336 335 334 335 333 333 335 335 334 334 333 332 332 331 331 330 331 331 331 332 334 334 334 335 334
348 350 351 350 349 349 351 349 349 351 351 351 353 354 356 356 357 357 356 354 353 352 351 349 345 343 343 343 342 341 339 339 338 337 337 338 336 336 337 336 336 334 332 333 335 335 334 333 332 332 332 331 331 331 331 331 330 331 333 333 334 334 334
348 349 350 348 348 349 349 347 348 350 351 351 352 354 356 356 357 357 355 353 352 350 349 347 345 343 343 343 341 339 339 339 338 337 338 338 337 337 337 337 335 332 331 333 335 335 334 333 332 332 332 332 332 332 332 331 331 331 331 332 333 332 333
347 349 348 348 346 346 349 348 347 349 351 350 351 354 355 356 357 356 355 353 351 350 348 347 345 343 343 343 341 340 339 339 338 338 339 338 337 337 337 335 334 331 330 332 333 334 333 332 332 332 332 333 333 332 332 331 331 331 331 331 332 333 333
347 349 348 346 345 345 349 348 347 347 349 349 351 353 354 356 357 356 355 353 350 349 348 346 345 343 342 342 341 340 339 338 338 338 339 337 336 336 336 335 333 329 329 331 331 332 332 332 332 332 333 333 333 333 332 332 332 331 332 332 332 333 333
348 349 349 347 345 346 348 347 348 347 348 349 350 352 353 355 356 355 354 353 351 349 348 346 344 342 341 342 340 338 338 338 339 339 338 338 336 336 335 334 330 328 329 330 331 332 332 332 332 332 332 332 332 333 332 332 331 332 333 332 332 333 333
351 351 352 351 348 349 350 351 352 348 346 349 349 351 353 354 355 355 354 353 351 349 348 345 344 342 341 340 338 337 338 338 339 339 339 338 336 336 335 333 329 329 331 332 333 334 333 333 333 331 332 332 331 331 331 331 331 332 332 331 331 331 332
353 355 355 353 351 351 353 354 354 349 346 349 350 350 352 353 354 355 353 352 351 349 348 345 344 342 340 339 338 338 338 338 339 340 339 337 336 336 335 333 331 332 333 334 334 333 333 333 333 332 331 330 330 330 331 331 330 330 330 329 329 329 330
356 356 355 354 353 352 354 356 356 352 348 348 350 350 352 353 353 353 352 352 351 350 348 345 343 342 340 338 337 338 339 339 339 339 338 337 336 335 335 335 334 334 336 335 333 331 331 332 332 332 331 331 331 331 330 330 329 329 329 329 329 329 330
358 356 355 355 353 352 355 355 356 355 349 348 350 350 352 352 353 352 352 351 351 349 348 345 343 342 340 339 338 339 339 339 338 338 337 337 336 335 336 336 335 336 336 334 331 331 331 332 331 331 331 331 331 332 331 330 329 329 329 329 329 329 330
359 358 356 357 355 354 354 352 355 356 351 349 350 351 351 352 352 352 351 351 349 349 347 345 344 342 340 339 339 340 339 338 339 338 337 336 336 337 336 336 336 337 335 333 332 332 332 331 331 330 331 331 331 331 331 329 330 330 329 328 328 329 329
362 359 358 358 356 355 354 352 352 354 353 350 349 351 351 351 352 351 350 349 348 347 346 345 344 342 340 339 339 339 339 339 338 338 337 337 336 336 335 335 337 337 335 333 333 333 332 331 332 333 333 332 331 330 330 329 330 330 328 328 328 329 330
365 363 361 361 360 357 357 356 353 353 354 350 349 351 351 351 351 350 349 348 347 346 345 344 343 341 340 339 339 340 339 340 339 337 335 336 336 335 335 336 337 337 336 335 333 332 333 332 333 333 333 334 333 332 331 330 329 329 328 327 328 329 330
363 365 364 365 367 367 367 367 364 360 354 348 349 351 351 351 350 348 348 347 345 344 343 342 341 341 340 339 339 340 339 339 337 334 334 336 336 337 337 337 337 337 336 335 333 333 333 333 333 333 333 335 334 333 332 330 329 328 327 328 328 329 329
362 365 368 373 379 381 382 381 371 360 351 347 350 351 350 350 349 347 347 345 343 342 341 341 341 341 340 339 339 339 338 336 332 331 334 338 337 337 338 338 337 336 335 334 334 333 333 333 333 334 334 335 334 334 333 331 329 328 327 328 328 328 328
363 363 364 371 384 394 399 390 367 354 351 350 350 351 350 349 348 346 344 341 339 340 340 341 341 341 340 339 338 338 336 335 332 332 336 339 337 337 338 338 337 336 335 335 334 333 333 333 333 334 334 335 335 334 333 331 330 329 328 328 329 328 329
366 366 362 368 377 385 393 382 359 350 353 353 350 351 349 346 344 343 340 339 338 339 340 339 338 338 338 337 336 336 336 336 335 336 339 339 338 339 338 338 337 336 334 334 334 333 334 334 334 335 335 336 335 333 332 330 329 329 329 330 330 330 329
368 369 369 370 367 363 365 362 354 350 352 351 350 350 346 343 342 341 338 339 338 338 339 338 337 336 336 336 336 337 338 337 336 337 339 339 339 339 338 337 337 335 335 335 334 334 334 334 334 335 335 336 335 333 332 331 330 330 330 330 329 329 328
360 365 369 364 357 352 351 351 351 350 349 348 347 346 343 342 341 339 338 338 338 339 338 337 336 336 336 337 337 337 338 337 335 336 337 337 338 338 336 336 335 335 336 335 335 335 334 334 335 335 336 335 335 334 332 331 330 330 329 328 327 327 326
357 363 362 354 348 347 347 346 347 347 346 345 343 342 342 341 340 339 338 338 338 338 337 337 337 337 337 338 337 335 336 336 336 337 337 337 337 335 335 335 335 335 336 335 336 335 334 335 336 335 335 333 332 332 331 330 330 329 328 327 326 326 326
358 356 350 347 348 347 343 343 344 343 344 342 340 340 341 340 339 338 337 338 337 336 336 336 337 336 336 336 334 334 335 337 337 339 339 338 337 336 336 336 335 336 336 335 335 334 333 335 335 333 333 332 331 330 330 329 329 328 327 326 326 327 327
360 357 350 347 347 345 342 342 341 340 340 339 338 339 340 339 339 338 337 338 338 336 336 336 336 336 336 335 334 334 336 338 340 342 341 340 339 337 337 337 336 337 337 335 334 334 334 334 332 331 331 331 330 330 329 329 328 326 326 326 326 327 328
349 350 348 345 345 344 341 340 340 339 339 338 338 338 338 338 337 336 337 337 337 337 336 336 336 336 335 335 335 335 337 340 342 344 342 340 340 339 337 337 337 336 336 335 335 334 332 332 331 331 331 331 331 330 329 328 327 325 325 325 326 327 327
350 349 346 345 345 344 341 339 339 338 337 337 337 337 336 336 336 336 335 335 336 337 336 335 335 335 335 335 336 336 337 339 342 344 343 341 339 338 337 337 337 336 336 335 334 331 330 330 329 330 332 332 331 330 328 326 325 324 324 325 326 327 327
357 352 345 343 344 343 342 340 338 337 337 336 336 337 336 335 336 335 334 334 335 335 335 335 335 335 335 335 335 336 337 339 341 343 343 341 339 337 337 336 336 335 334 332 330 328 328 327 327 330 333 332 330 328 326 325 323 323 323 324 325 326 326
353 348 343 342 342 343 342 340 337 336 336 335 335 336 336 336 336 335 335 335 334 334 334 334 334 335 335 335 336 338 339 340 341 342 341 340 337 335 334 333 333 332 331 329 327 327 327 326 327 331 333 332 329 326 324 323 323 323 323 324 324 325 325
349 345 343 342 341 342 341 339 338 337 335 335 336 336 336 336 336 335 335 335 334 334 334 334 334 335 336 337 338 339 339 340 340 340 341 340 338 335 333 332 330 330 329 328 328 328 327 326 329 333 333 330 329 327 325 324 324 324 323 324 324 324 324
348 343 342 341 340 341 339 338 337 336 336 336 335 335 336 336 335 336 336 337 337 336 335 335 337 337 337 338 339 339 339 339 339 339 339 338 336 335 333 331 329 328 328 328 327 327 327 328 330 332 332 330 329 328 327 326 325 325 324 324 323 322 321
350 344 341 341 341 339 338 337 336 336 336 335 335 335 336 335 336 338 339 339 337 334 333 333 333 334 336 337 337 336 336 337 337 337 336 335 334 332 331 329 328 327 327 327 328 330 330 330 332 333 331 330 329 328 327 327 326 325 324 323 322 321 320
348 343 342 342 341 339 337 336 336 336 335 335 335 335 335 337 340 342 341 338 333 331 331 330 330 331 333 333 332 332 333 335 334 334 332 331 330 329 328 327 326 326 326 327 330 332 332 330 330 330 329 327 327 327 327 327 327 325 323 322 321 320 318
342 340 342 343 341 339 338 337 337 337 337 337 337 336 336 339 342 341 337 334 332 331 331 330 330 331 332 331 331 332 334 334 333 331 330 329 328 327 327 327 327 327 328 329 330 330 328 326 326 326 324 324 325 326 326 326 325 323 321 320 319 318 317
340 339 342 343 342 342 340 339 338 338 337 337 336 336 336 337 339 337 335 334 334 332 331 332 333 333 332 332 331 332 334 333 331 330 329 328 327 327 327 328 328 328 328 327 325 325 324 324 324 323 322 322 322 323 323 322 321 320 318 318 318 317 316
340 339 341 342 343 343 341 340 340 338 335 334 334 334 333 333 335 335 333 333 332 331 332 335 336 336 335 334 333 333 333 332 331 330 329 328 327 327 327 326 324 324 323 323 323 323 324 323 323 322 321 320 320 320 320 319 318 317 316 317 317 316 315
341 339 340 341 342 342 341 341 340 336 332 330 329 330 329 329 330 331 331 330 328 329 333 337 338 337 336 335 334 333 333 333 332 331 328 327 327 326 325 324 322 321 321 322 322 323 323 322 321 321 320 320 320 319 318 316 316 315 315 316 316 315 314
Wind_Speed
15 15 15 14 14 16 15 18 23 27 28 30 32 34 35 35 35 35 35 36 37 36 35 35 34 34 32 29 26 24 23 22 21 19 16 15 14 14 13 13 13 11 9 9 8 8 7 6 6 6 5 5 5 5 6 6 6 7 7 7 6 6 5
14 14 14 14 14 15 15 19 25 27 28 30 32 35 36 36 37 37 36 37 38 37 37 37 37 36 33 30 27 26 26 24 22 20 17 16 15 14 14 13 12 11 10 10 9 9 8 6 6 6 6 7 6 5 5 5 6 7 8 8 8 8 7
14 13 14 14 14 15 15 18 23 27 29 30 32 35 37 39 40 41 40 39 38 38 38 39 38 37 34 32 29 28 27 25 23 21 18 17 16 15 14 13 12 11 10 10 9 9 9 8 7 7 7 7 6 5 5 6 6 7 9 10 10 10 9
16 16 16 16 16 16 15 18 23 27 29 32 35 38 40 42 43 43 42 42 40 39 40 41 40 38 35 33 31 30 29 26 24 22 19 17 16 16 15 14 13 12 11 11 10 10 10 9 8 7 7 7 7 6 7 7 7 7 7 8 9 10 10
18 17 14 14 14 13 13 16 22 27 29 33 36 39 41 42 42 42 42 43 43 43 43 43 41 38 37 34 33 33 30 27 25 22 19 18 16 16 16 15 15 14 12 11 11 11 10 10 9 9 8 8 7 6 6 6 7 7 7 8 9 10 10
16 15 14 13 13 13 14 17 24 30 32 34 37 39 39 39 39 41 41 41 41 42 42 42 41 38 37 35 34 33 31 28 25 22 20 19 17 17 18 17 17 15 13 11 11 12 11 11 11 11 10 9 8 7 7 5 5 6 8 10 12 12 13
15 14 14 14 14 14 14 17 25 31 34 35 36 35 35 36 38 40 39 39 40 40 41 41 41 38 37 36 35 33 31 29 26 23 21 21 19 18 18 18 17 14 12 12 12 12 13 13 13 12 12 11 11 10 9 8 8 8 9 12 13 14 15
15 14 15 15 15 15 14 15 22 28 30 30 30 30 33 35 36 36 36 37 38 39 41 42 40 38 37 37 36 34 32 30 27 24 23 22 20 19 19 18 16 14 13 13 13 13 15 15 14 13 14 14 13 12 12 12 12 12 12 13 15 15 15
14 14 15 15 15 14 13 15 21 26 27 28 29 31 33 34 34 35 36 36 36 38 41 41 40 39 38 38 37 35 33 31 28 25 24 23 22 20 19 18 16 14 13 13 13 15 17 18 17 16 16 17 16 16 15 15 16 16 16 16 17 18 18
12 13 14 14 14 13 12 14 17 19 21 25 28 30 32 33 34 34 34 34 35 38 41 40 39 39 38 38 37 35 34 32 29 28 27 25 23 21 20 19 16 14 14 13 13 15 18 18 18 17 17 17 17 17 16 16 17 17 18 17 18 19 19
11 12 12 12 12 11 11 11 12 15 19 24 26 29 31 33 33 33 33 34 37 39 39 38 37 37 37 37 36 35 35 33 30 30 28 26 23 20 20 18 15 14 14 14 14 17 19 19 18 17 16 15 15 15 14 13 13 13 14 15 16 17 18
11 11 11 12 13 12 11 12 12 14 19 24 27 29 31 32 33 33 33 35 37 38 38 37 37 37 38 37 35 34 35 33 32 30 27 24 20 18 18 17 15 15 15 15 15 16 18 18 17 16 14 13 13 13 11 10 10 11 12 14 15 16 18
10 10 11 12 12 11 12 12 13 15 19 24 27 29 31 32 33 33 33 36 38 38 38 37 36 37 39 39 38 36 35 32 31 29 26 23 19 18 20 19 17 18 18 16 14 14 16 16 15 14 13 12 11 11 10 10 12 13 13 14 15 17 18
12 12 11 11 11 12 13 13 14 14 17 23 27 28 30 31 32 33 35 38 39 38 37 37 37 38 39 40 39 35 30 28 29 28 25 23 21 21 22 21 20 22 21 16 14 14 15 14 13 12 12 11 11 11 12 14 15 15 14 14 15 16 17
12 12 12 12 11 12 12 13 14 13 15 21 25 25 26 28 30 31 33 36 37 36 36 36 37 36 36 35 31 24 23 24 27 28 25 22 23 24 23 21 22 23 21 17 15 15 14 12 11 10 9 10 12 13 15 16 16 16 15 15 16 17 18
12 12 12 12 12 12 12 12 13 13 13 17 21 23 25 27 28 29 30 32 31 31 32 34 34 32 30 29 26 23 25 28 29 29 25 23 25 25 23 22 24 24 21 19 17 16 14 14 13 11 10 11 12 14 15 16 17 17 16 16 17 18 19
11 11 10 11 10 10 9 9 9 9 9 14 19 24 25 24 24 26 28 31 33 36 39 39 37 33 28 29 30 31 34 34 32 26 22 25 28 25 23 24 26 25 23 21 19 17 16 16 15 14 13 13 14 15 16 17 18 18 18 18 18 18 18
8 8 8 8 8 7 7 7 7 6 8 13 18 21 21 22 24 26 31 37 38 37 35 32 31 30 29 35 39 38 36 35 28 18 18 28 31 27 26 27 27 26 24 23 21 18 17 17 16 16 15 15 16 18 19 19 19 18 18 19 18 18 18
7 7 7 7 7 7 7 7 7 10 13 15 15 17 21 26 30 33 37 35 29 27 28 29 29 29 30 34 35 33 32 28 17 13 22 31 32 29 29 29 27 26 25 23 21 20 18 18 18 17 17 18 19 20 21 21 21 20 20 20 19 17 17
8 8 8 8 8 9 9 8 8 10 12 11 10 13 20 25 27 29 27 23 22 28 33 32 29 27 29 32 31 29 26 18 12 20 29 33 32 32 32 31 29 27 25 23 22 21 21 20 19 19 19 20 20 20 22 22 23 23 21 20 18 17 17
8 9 8 8 8 7 5 4 4 6 8 10 11 14 18 17 14 14 14 15 17 20 21 20 20 21 26 30 29 24 18 13 18 27 32 32 33 34 33 32 30 28 25 24 24 24 23 21 20 20 21 21 20 21 21 22 23 23 21 18 17 17 17
8 8 8 7 7 6 6 8 12 15 16 17 18 20 22 20 20 22 21 21 25 25 22 23 24 24 27 29 26 20 17 20 26 31 32 32 33 34 33 32 31 28 27 26 26 25 24 22 22 21 21 20 21 22 22 22 22 21 18 16 16 17 18
7 6 5 4 5 8 12 17 20 21 21 21 21 24 26 26 29 31 29 30 34 34 32 31 31 34 35 33 32 30 27 27 30 31 31 32 33 33 33 32 31 30 29 28 28 26 24 24 23 21 20 19 20 21 20 19 18 16 15 14 15 16 16
6 7 8 10 12 13 16 21 22 22 23 23 23 25 29 31 33 33 32 32 35 37 37 36 37 38 37 36 39 39 33 31 32 32 32 34 35 34 34 33 33 32 31 29 28 26 24 23 22 19 17 17 18 17 15 13 13 13 13 13 13 12 11
8 8 10 13 17 18 19 21 23 23 25 25 25 28 31 33 35 34 32 33 35 35 35 35 36 37 38 38 40 39 34 31 32 33 33 35 37 36 35 34 34 33 32 30 28 25 23 21 18 14 13 14 14 12 11 10 10 11 11 11 10 9 8
9 9 10 13 17 21 23 24 25 24 23 24 27 29 32 33 34 33 32 34 34 33 34 37 38 40 41 40 40 38 34 32 34 36 36 37 38 37 36 35 34 33 32 30 28 25 19 12 8 8 10 12 11 10 9 8 9 8 8 8 9 9 8
9 10 11 13 16 20 22 22 22 23 23 26 29 31 31 32 30 28 29 30 30 32 37 40 41 40 39 37 35 33 31 30 33 35 35 37 37 35 34 34 33 31 29 27 23 15 6 3 3 8 12 12 10 8 7 7 7 7 6 7 8 9 8
9 9 10 13 16 19 20 18 19 21 23 27 30 32 32 31 27 26 27 28 31 36 38 38 37 37 35 32 30 29 28 30 33 34 34 35 34 32 30 29 27 25 23 21 16 12 10 8 10 14 14 12 9 7 6 7 7 7 6 7 7 8 8
8 8 9 11 12 15 18 17 18 20 23 26 29 30 31 29 27 26 27 29 34 35 33 33 35 34 30 28 27 26 25 25 24 23 23 23 22 22 23 22 21 21 20 18 13 11 11 13 14 14 14 12 9 6 6 7 7 7 7 7 7 7 7
7 8 9 9 11 13 15 16 17 18 22 25 26 26 28 29 27 25 26 30 33 31 29 30 31 28 27 26 24 21 19 18 16 14 15 17 17 18 19 20 20 21 20 17 11 7 10 15 15 15 15 13 9 7 6 7 7 7 7 7 6 7 7
7 9 10 11 13 14 15 16 19 20 21 22 23 25 26 26 24 23 25 27 26 24 25 25 23 20 17 13 9 9 13 18 20 21 23 24 24 24 24 23 22 20 18 14 11 10 15 16 15 16 16 12 9 7 6 7 7 7 7 6 6 7 7
6 8 11 12 14 14 13 15 18 20 19 19 21 23 23 22 22 22 20 15 11 11 12 11 11 12 13 12 8 7 12 17 20 22 24 25 25 26 26 26 23 18 14 11 10 12 14 14 14 15 14 11 8 7 7 8 8 8 7 7 6 7 8
5 6 9 11 14 16 16 15 15 15 14 15 17 18 18 18 18 15 12 11 14 16 16 14 10 9 12 14 13 15 18 21 22 22 22 21 22 24 24 21 16 12 10 10 11 11 11 11 12 13 11 9 8 8 9 9 9 8 7 7 7 8 9
5 6 9 12 15 17 16 15 13 12 12 13 15 17 17 15 11 11 14 17 17 15 14 13 10 10 14 17 19 19 21 23 23 24 24 23 22 21 18 14 11 9 9 11 11 11 11 11 11 11 10 9 8 9 10 10 9 7 7 7 8 9 8
4 7 9 10 12 13 13 13 14 14 14 14 16 18 16 13 15 18 18 16 12 8 5 6 9 13 18 20 21 21 22 23 24 26 25 23 20 17 13 11 10 10 10 11 11 12 12 10 9 8 7 7 7 8 8 8 7 7 7 8 9 8 6
4 6 7 9 10 11 12 14 16 17 16 15 16 18 17 17 20 21 18 13 8 3 3 5 10 15 19 21 20 20 23 23 23 23 22 20 17 15 12 10 10 10 12 13 12 10 8 6 5 5 5 5 5 5 5 5 6 6 7 7 7 4 2
6 7 8 11 14 15 15 17 18 18 17 18 19 21 20 18 17 17 16 13 7 2 9 12 16 18 20 22 21 22 23 22 21 21 20 18 17 16 16 15 13 12 12 11 9 7 5 4 3 3 4 4 3 3 4 4 5 5 5 4 3 3 3
10 10 12 13 15 17 17 18 19 20 21 22 23 24 21 16 14 12 9 5 4 8 13 16 16 18 20 21 21 21 21 20 21 21 20 19 19 19 19 18 16 13 10 8 7 6 5 4 3 3 3 4 4 4 4 4 4 4 3 3 4 4 3
Wind_Direction
181 185 186 187 189 190 189 186 186 186 186 186 187 188 190 191 192 193 195 196 197 197 196 196 197 198 198 199 201 201 198 196 199 201 202 203 203 203 205 209 213 217 218 215 218 221 225 236 247 247 231 226 239 249 260 268 266 274 284 284 279 281 289
186 187 188 190 193 193 191 188 187 187 187 187 187 188 189 190 191 193 194 195 196 195 194 194 196 197 199 200 200 198 197 199 200 202 202 199 200 203 204 208 211 209 209 212 212 213 216 222 221 216 218 233 247 253 259 268 276 284 287 282 277 275 276
188 190 192 193 194 192 191 189 189 190 188 187 187 188 190 191 192 193 194 194 194 193 192 193 196 198 199 199 198 197 199 200 200 202 202 198 198 201 202 207 209 206 208 207 200 203 208 211 217 225 235 247 257 257 256 264 276 289 290 283 278 274 273
191 195 194 194 195 192 190 190 191 191 190 190 190 190 191 192 193 194 194 194 192 190 191 194 197 198 198 198 198 198 199 199 201 204 205 203 201 200 202 206 205 204 206 202 200 207 211 215 226 236 245 258 266 262 259 262 265 278 288 280 273 270 268
193 196 194 195 196 193 190 191 192 192 192 193 193 193 194 193 193 193 194 194 192 192 193 195 197 198 198 199 199 199 200 201 203 205 207 206 201 197 199 202 202 204 207 206 208 213 214 223 236 243 251 261 265 260 261 267 265 267 274 275 274 270 268
192 195 194 196 196 193 191 192 194 193 194 194 195 195 195 192 192 193 194 194 193 193 193 195 197 197 197 199 199 199 201 202 204 206 207 205 201 197 199 202 205 209 213 213 214 218 225 236 242 245 253 257 259 260 262 269 272 269 269 270 272 270 271
188 193 193 196 196 194 193 193 195 196 196 196 195 195 194 192 193 194 194 193 192 192 192 195 196 196 196 197 198 199 200 203 205 205 205 204 203 203 202 204 210 216 219 217 218 226 238 246 246 249 257 260 262 267 269 273 275 274 271 269 268 268 271
184 188 192 197 197 194 193 194 196 197 197 195 194 194 194 194 195 194 194 193 192 191 193 195 195 195 196 196 198 201 202 203 204 204 205 205 207 207 205 208 214 219 219 218 221 232 242 247 248 253 260 264 267 270 273 276 276 275 273 270 270 269 271
182 187 193 196 196 194 193 195 196 195 194 194 194 195 195 195 195 196 195 193 191 193 195 195 194 194 194 195 198 200 201 202 203 204 205 205 207 207 208 214 218 217 218 220 226 234 241 247 250 255 262 267 270 271 274 278 281 281 277 275 275 273 272
182 188 195 196 195 197 194 192 193 193 193 195 196 197 196 196 196 196 195 192 192 195 197 195 194 193 191 193 197 199 200 201 201 203 204 206 208 209 213 218 215 211 216 222 232 241 246 250 253 259 267 270 271 273 276 282 286 286 281 278 277 275 272
181 186 193 195 196 198 191 186 188 193 196 197 197 197 196 197 197 195 193 193 194 198 197 194 193 190 188 192 196 197 198 200 201 202 203 205 209 213 218 220 212 208 216 227 241 251 254 254 254 258 261 262 266 272 275 279 282 283 281 278 277 277 275
181 183 187 192 194 194 190 189 192 195 198 198 198 198 197 197 197 195 193 194 196 198 196 193 192 188 185 188 194 197 198 198 199 199 200 203 209 217 223 222 216 217 225 235 245 250 249 248 248 248 249 252 262 270 269 271 280 287 288 285 284 284 281
180 182 188 192 191 190 190 192 196 196 199 200 200 199 198 197 196 194 192 194 198 198 195 192 191 187 184 185 192 198 199 197 196 194 197 203 208 216 223 223 225 230 235 237 236 230 227 230 234 238 242 250 263 270 267 277 292 294 290 287 286 285 282
182 185 192 195 191 191 192 193 197 199 199 201 201 200 199 199 197 194 193 196 197 196 193 191 189 188 185 184 188 194 194 193 193 194 200 206 208 215 221 224 230 237 237 228 216 211 214 223 235 241 243 249 262 272 275 283 289 283 278 282 284 282 280
184 191 195 198 199 197 196 198 199 200 201 202 201 198 197 198 197 196 196 198 197 194 191 190 188 188 185 182 181 184 187 193 198 200 204 207 210 217 222 225 233 236 230 218 213 217 224 239 255 257 256 260 265 271 275 279 280 274 275 286 287 283 281
186 196 197 200 205 204 203 205 203 200 201 201 200 197 197 197 195 195 195 196 195 190 187 187 186 186 182 173 169 178 190 200 206 205 205 208 212 218 222 225 231 231 224 221 225 233 241 255 262 261 269 274 268 268 270 272 274 274 277 285 285 281 280
189 196 201 206 210 211 213 216 215 211 204 203 203 200 197 194 190 188 190 192 192 189 187 185 183 183 178 166 169 186 196 201 203 203 209 215 216 218 221 225 230 230 227 227 231 238 247 254 255 257 268 273 269 269 269 270 272 273 276 281 280 277 276
185 191 201 210 214 216 220 228 230 222 213 215 211 201 192 183 179 182 188 191 192 187 181 177 177 182 180 172 179 192 196 194 194 201 221 224 218 216 220 224 228 229 228 229 234 243 248 248 252 259 266 268 268 270 270 269 269 270 274 277 275 274 275
166 178 191 197 202 205 210 220 221 214 216 219 211 197 188 181 181 188 191 188 181 167 161 168 180 187 180 172 179 189 187 183 189 214 225 222 217 217 220 223 225 226 227 231 238 244 246 248 254 261 264 266 267 270 273 273 271 269 271 274 274 274 273
170 177 184 190 196 201 205 210 211 209 210 205 188 183 185 186 190 194 186 171 159 158 163 171 179 177 165 164 173 180 178 181 211 224 222 220 218 217 219 221 224 225 228 234 239 241 244 249 255 258 261 263 264 268 274 276 272 270 270 270 273 274 271
181 174 176 186 192 196 202 190 146 135 138 138 144 160 169 173 172 160 139 120 126 141 146 146 145 144 147 155 164 170 178 203 220 219 220 221 219 218 219 221 223 224 228 233 237 240 244 248 252 255 257 259 258 261 268 271 270 268 266 266 268 267 267
184 178 182 190 185 177 167 148 136 133 137 147 155 157 155 151 144 140 135 129 130 133 134 133 136 144 151 156 160 172 200 219 216 215 219 219 217 216 216 218 221 224 228 233 236 239 243 247 249 252 254 255 256 258 264 268 268 264 262 265 269 269 270
173 163 153 134 125 134 137 135 137 141 145 150 152 149 147 147 147 145 143 142 143 147 150 154 159 165 168 170 173 183 204 218 217 216 217 215 212 211 213 217 222 226 229 231 234 237 241 245 246 248 253 257 260 264 267 266 262 260 265 275 281 280 278
120 120 114 109 105 109 119 126 134 142 145 144 145 149 151 151 148 143 140 144 150 154 161 170 174 174 176 180 181 189 205 220 223 223 219 215 214 215 217 220 224 228 230 230 232 237 242 245 246 248 255 263 266 265 263 258 257 266 279 287 288 282 273
100 107 117 126 126 125 129 132 135 140 144 144 148 154 156 155 150 145 144 152 159 164 172 180 180 179 183 187 188 197 212 222 227 226 219 215 217 220 222 224 227 229 229 229 233 238 241 242 242 246 255 262 260 254 251 258 270 280 283 282 277 267 260
119 123 127 131 133 134 137 139 139 142 147 150 154 157 157 156 153 152 155 160 165 170 179 185 186 187 190 191 195 206 217 223 227 225 218 217 221 222 223 225 227 227 226 228 231 234 236 236 238 247 251 248 245 249 262 278 287 283 272 265 258 254 256
112 121 129 134 136 137 139 143 146 148 154 157 157 158 159 157 156 160 164 166 172 180 185 188 191 193 194 197 204 213 219 223 225 224 220 220 222 222 223 225 224 223 223 223 221 213 191 164 243 257 253 245 245 260 278 285 283 274 262 257 255 255 260
103 106 117 129 138 142 142 144 147 150 157 160 160 162 163 160 160 164 167 174 185 191 192 192 194 198 202 206 211 217 222 227 230 228 226 226 225 222 220 219 219 219 215 207 192 163 149 183 237 250 246 244 251 261 267 268 269 267 263 259 258 259 262
118 120 124 132 146 153 148 144 150 156 160 164 166 168 167 165 166 170 176 187 196 196 195 198 202 206 211 214 219 224 229 232 234 233 232 233 231 223 217 215 211 203 193 183 166 151 172 209 239 244 237 240 246 241 245 255 258 262 266 264 261 261 262
127 133 136 136 148 158 152 147 152 161 166 170 171 171 171 172 173 178 188 197 199 196 197 202 207 213 220 225 229 230 227 223 225 234 240 240 236 230 226 219 203 186 178 175 168 175 214 234 243 237 231 234 228 210 222 246 255 260 263 263 263 264 268
136 141 140 140 149 160 163 158 157 163 171 176 176 175 177 178 177 183 198 206 206 204 205 208 212 217 221 220 216 213 218 222 225 231 235 235 232 227 216 201 186 175 175 184 196 222 238 242 236 228 226 225 214 201 216 241 252 258 264 267 269 272 280
126 136 137 144 155 164 168 162 160 166 172 177 182 183 184 184 185 191 201 206 192 181 183 186 187 180 165 151 156 199 231 236 231 228 230 231 227 216 200 185 179 177 180 194 216 230 234 231 224 221 222 222 217 210 220 238 250 257 264 270 272 281 290
119 139 151 162 166 167 166 163 164 168 167 172 182 184 183 187 192 191 178 145 124 121 114 102 107 142 159 168 191 214 224 223 216 209 207 205 199 190 181 176 177 182 188 204 216 218 219 219 216 213 213 220 227 222 223 235 244 249 259 270 282 292 294
121 147 163 172 173 169 164 159 158 159 158 164 176 180 181 184 180 157 138 125 117 117 119 124 148 194 206 201 202 204 201 195 187 177 173 172 171 170 171 175 185 193 197 202 205 204 202 200 198 200 208 223 230 224 224 234 241 248 264 283 295 298 292
135 160 167 170 169 165 158 151 150 150 149 155 169 176 174 157 136 126 122 115 107 106 125 165 187 208 218 217 211 201 187 178 173 168 167 167 168 170 175 184 194 194 188 185 188 190 191 189 189 199 215 227 230 228 231 239 248 259 277 292 296 291 278
140 158 157 147 146 147 147 145 145 142 136 139 151 156 145 126 119 118 115 110 103 76 300 237 197 196 207 210 202 187 175 171 171 172 173 174 175 174 171 169 172 175 173 171 173 177 182 188 198 216 230 235 237 239 240 246 257 269 282 288 283 265 230
167 160 152 145 141 140 143 145 143 136 128 123 124 123 113 103 107 115 115 112 108 284 260 225 194 188 196 198 190 184 181 180 180 181 181 181 181 177 166 154 150 156 163 165 165 171 185 198 204 220 232 229 229 239 245 251 261 268 271 264 231 192 161
181 167 160 154 148 145 149 153 149 142 135 128 122 120 121 127 134 132 125 133 197 231 231 218 203 199 202 200 195 194 193 190 186 185 183 180 177 173 167 159 152 148 151 159 166 172 179 184 186 192 203 213 224 233 236 234 232 236 238 218 194 187 170